K0JSC-13 Weather Reports


Display with metric or nautical units.
time (UTC)temp
F
wind
direction
speed
MPH
gust
MPH
rain 1hr
in
rain 24hr
in
rain mn
in
humidity
%
barometer
mb
20240527160003 72 310 4.0 14.0 0.00 0.00 0.00 25 996.6
20240527155503 72 312 3.0 9.0 0.00 0.00 0.00 24 996.7
20240527155003 72 303 3.0 7.0 0.00 0.00 0.00 25 996.7
20240527154503 72 304 3.0 7.0 0.00 0.00 0.00 24 996.8
20240527154003 71 284 3.0 7.0 0.00 0.00 0.00 28 996.9
20240527153503 71 272 2.0 7.0 0.00 0.00 0.00 27 996.9
20240527153003 70 270 2.0 7.0 0.00 0.00 0.00 27 996.9
20240527152503 70 276 3.0 8.0 0.00 0.00 0.00 27 997.0
20240527152003 69 291 3.0 8.0 0.00 0.00 0.00 30 997.0
20240527151503 68 299 4.0 10.0 0.00 0.00 0.00 30 997.1
20240527151003 68 302 4.0 10.0 0.00 0.00 0.00 31 997.0
20240527150503 68 311 3.0 8.0 0.00 0.00 0.00 33 997.0
20240527150003 67 314 4.0 9.0 0.00 0.00 0.00 34 997.0
20240527145503 66 313 5.0 10.0 0.00 0.00 0.00 32 997.0
20240527145003 66 312 6.0 12.0 0.00 0.00 0.00 32 997.0
20240527144503 66 306 6.0 12.0 0.00 0.00 0.00 32 997.0
20240527144003 65 305 5.0 9.0 0.00 0.00 0.00 34 997.0
20240527143503 64 306 5.0 11.0 0.00 0.00 0.00 35 997.0
20240527143003 64 303 6.0 12.0 0.00 0.00 0.00 34 997.0
20240527142503 64 306 7.0 12.0 0.00 0.00 0.00 34 997.0
20240527142003 63 312 7.0 13.0 0.00 0.00 0.00 35 997.0
20240527141503 63 311 7.0 13.0 0.00 0.00 0.00 34 997.1
20240527141003 62 303 5.0 12.0 0.00 0.00 0.00 36 997.0
20240527140503 62 296 4.0 10.0 0.00 0.00 0.00 37 997.1
20240527140003 61 298 6.0 11.0 0.00 0.00 0.00 39 997.2
20240527135503 61 299 5.0 11.0 0.00 0.00 0.00 37 997.2
20240527135003 60 296 4.0 9.0 0.00 0.00 0.00 39 997.2
20240527134503 60 299 5.0 10.0 0.00 0.00 0.00 39 997.2
20240527134003 59 304 5.0 11.0 0.00 0.00 0.00 38 997.3
20240527133503 58 302 4.0 11.0 0.00 0.00 0.00 42 997.1
20240527133003 58 306 3.0 8.0 0.00 0.00 0.00 43 997.1
20240527132503 57 323 3.0 5.0 0.00 0.00 0.00 44 997.2
20240527132003 56 321 4.0 9.0 0.00 0.00 0.00 48 997.2
20240527131503 55 311 5.0 9.0 0.00 0.00 0.00 47 997.2
20240527131003 54 315 5.0 8.0 0.00 0.00 0.00 47 997.2
20240527130503 53 324 5.0 10.0 0.00 0.00 0.00 47 997.1
20240527130003 52 322 5.0 10.0 0.00 0.00 0.00 48 997.1
20240527125503 51 307 4.0 9.0 0.00 0.00 0.00 49 997.0
20240527125003 49 294 3.0 8.0 0.00 0.00 0.00 54 997.1
20240527124503 48 295 2.0 8.0 0.00 0.00 0.00 57 997.0
20240527124003 47 297 1.0 7.0 0.00 0.00 0.00 59 997.0
20240527123503 46 326 0.0 2.0 0.00 0.00 0.00 59 997.1
20240527123003 46 319 0.0 2.0 0.00 0.00 0.00 60 997.0
20240527122503 46 319 0.0 2.0 0.00 0.00 0.00 59 997.0
20240527122003 46 318 0.0 2.0 0.00 0.00 0.00 59 996.8
20240527121503 46 318 0.0 2.0 0.00 0.00 0.00 60 996.7
20240527121003 46 318 0.0 2.0 0.00 0.00 0.00 59 996.6
20240527120503 45 319 1.0 3.0 0.00 0.00 0.00 58 996.6
20240527120003 45 317 1.0 3.0 0.00 0.00 0.00 59 996.5
20240527115503 45 304 2.0 7.0 0.00 0.00 0.00 59 996.5
20240527115003 45 284 2.0 7.0 0.00 0.00 0.00 60 996.3
20240527114503 45 272 2.0 6.0 0.00 0.00 0.00 59 996.2
20240527114003 46 266 2.0 6.0 0.00 0.00 0.00 60 996.2
20240527113503 46 268 2.0 6.0 0.00 0.00 0.00 59 996.1
20240527113004 46 293 1.0 3.0 0.00 0.00 0.00 58 996.0
20240527112503 46 303 1.0 4.0 0.00 0.00 0.00 57 996.0
20240527112003 46 303 2.0 5.0 0.00 0.00 0.00 57 995.8
20240527111503 47 302 3.0 5.0 0.00 0.00 0.00 57 995.7
20240527111004 47 306 3.0 5.0 0.00 0.00 0.00 57 995.7
20240527110503 47 304 2.0 5.0 0.00 0.00 0.00 55 995.7
20240527110003 47 294 1.0 3.0 0.00 0.00 0.00 55 995.6
20240527105503 47 298 1.0 4.0 0.00 0.00 0.00 55 995.5
20240527105003 47 305 2.0 4.0 0.00 0.00 0.00 55 995.4
20240527104503 46 310 3.0 4.0 0.00 0.00 0.00 57 995.3
20240527104003 47 318 3.0 4.0 0.00 0.00 0.00 58 995.3
20240527103503 47 343 2.0 4.0 0.00 0.00 0.00 57 995.2
20240527103003 47 16 2.0 4.0 0.00 0.00 0.00 57 995.2
20240527102503 47 65 1.0 3.0 0.00 0.00 0.00 57 995.1
20240527102003 47 112 0.0 3.0 0.00 0.00 0.00 57 995.1
20240527101503 48 0 0.0 0.0 0.00 0.00 0.00 56 995.0
20240527101003 48 0 0.0 0.0 0.00 0.00 0.00 56 995.0
20240527100503 48 133 0.0 1.0 0.00 0.00 0.00 54 994.9
20240527100003 49 133 0.0 1.0 0.00 0.00 0.00 53 994.9
20240527095503 49 0 0.0 0.0 0.00 0.00 0.00 52 994.9
20240527095003 49 127 0.0 3.0 0.00 0.00 0.00 52 994.9
20240527094503 50 145 2.0 5.0 0.00 0.00 0.00 52 994.9
20240527094003 50 159 2.0 5.0 0.00 0.00 0.00 51 994.9
20240527093503 50 315 2.0 5.0 0.00 0.00 0.00 49 994.8
20240527093004 50 313 4.0 8.0 0.00 0.00 0.00 49 994.7
20240527092503 50 308 4.0 8.0 0.00 0.00 0.00 49 994.6
20240527092003 51 301 3.0 7.0 0.00 0.00 0.00 49 994.6
20240527091503 51 296 2.0 5.0 0.00 0.00 0.00 47 994.6
20240527091003 51 292 1.0 4.0 0.00 0.00 0.00 46 994.6
20240527090503 52 0 0.0 0.0 0.00 0.00 0.00 46 994.6
20240527090003 52 0 0.0 0.0 0.00 0.00 0.00 45 994.6
20240527085503 53 207 0.0 1.0 0.00 0.00 0.00 43 994.6
20240527085003 53 206 1.0 3.0 0.00 0.00 0.00 43 994.6
20240527084503 54 229 1.0 3.0 0.00 0.00 0.00 42 994.5
20240527084003 54 315 1.0 5.0 0.00 0.00 0.00 41 994.4
20240527083503 54 337 2.0 5.0 0.00 0.00 0.00 40 994.3
20240527083003 54 330 3.0 5.0 0.00 0.00 0.00 40 994.2
20240527082503 54 316 3.0 7.0 0.00 0.00 0.00 39 994.2
20240527082003 54 316 4.0 7.0 0.00 0.00 0.00 39 994.2
20240527081503 55 317 3.0 6.0 0.00 0.00 0.00 39 994.2
20240527081003 55 304 3.0 6.0 0.00 0.00 0.00 39 994.1
20240527080503 56 295 3.0 10.0 0.00 0.00 0.00 38 994.1
20240527080003 56 300 4.0 10.0 0.00 0.00 0.00 37 994.1
20240527075503 56 306 5.0 9.0 0.00 0.00 0.00 37 994.0
20240527075003 56 308 6.0 10.0 0.00 0.00 0.00 37 993.9
20240527074503 56 305 6.0 10.0 0.00 0.00 0.00 37 993.9
20240527074003 56 303 4.0 9.0 0.00 0.00 0.00 37 993.9
20240527073503 57 305 3.0 7.0 0.00 0.00 0.00 36 994.0
20240527073003 57 316 3.0 10.0 0.00 0.00 0.00 37 994.0
20240527072503 58 318 5.0 10.0 0.00 0.00 0.00 35 993.9
20240527072003 58 318 7.0 12.0 0.00 0.00 0.00 35 993.9
20240527071503 58 320 8.0 12.0 0.00 0.00 0.00 35 993.8
20240527071003 58 323 8.0 14.0 0.00 0.00 0.00 35 993.7
20240527070503 57 326 8.0 14.0 0.00 0.00 0.00 36 993.6
20240527070004 56 327 7.0 11.0 0.00 0.00 0.00 37 993.8
20240527065503 56 327 6.0 11.0 0.00 0.00 0.00 38 993.7
20240527065003 55 329 5.0 10.0 0.00 0.00 0.00 39 993.7
20240527064503 55 329 4.0 9.0 0.00 0.00 0.00 40 993.7
20240527064003 55 319 4.0 8.0 0.00 0.00 0.00 40 993.8
20240527063503 55 305 4.0 8.0 0.00 0.00 0.00 40 993.7
20240527063003 55 297 4.0 8.0 0.00 0.00 0.00 40 993.7
20240527062503 56 296 4.0 8.0 0.00 0.00 0.00 40 993.6
20240527062003 56 296 4.0 7.0 0.00 0.00 0.00 39 993.5
20240527061503 56 299 3.0 7.0 0.00 0.00 0.00 39 993.4
20240527061003 56 304 3.0 8.0 0.00 0.00 0.00 39 993.3
20240527060503 56 312 2.0 8.0 0.00 0.00 0.00 39 993.4
20240527060008 54 82 0.0 2.0 0.00 0.00 0.00 44 993.3
20240527055503 53 81 1.0 3.0 0.00 0.00 0.00 44 993.3
20240527055003 52 82 0.0 3.0 0.00 0.00 0.00 46 993.2
20240527054503 51 86 0.0 1.0 0.00 0.00 0.00 49 993.1
20240527054003 51 86 0.0 2.0 0.00 0.00 0.00 50 993.0
20240527053503 52 87 0.0 2.0 0.00 0.00 0.00 50 993.0
20240527053003 52 88 0.0 1.0 0.00 0.00 0.00 49 993.0
20240527052503 53 87 0.0 2.0 0.00 0.00 0.00 46 992.9
20240527052003 53 87 0.0 2.0 0.00 0.00 0.00 45 992.9
20240527051503 54 85 0.0 1.0 0.00 0.00 0.00 45 992.8
20240527051003 54 87 0.0 2.0 0.00 0.00 0.00 43 992.8
20240527050503 54 87 0.0 2.0 0.00 0.00 0.00 42 992.8
20240527050003 55 87 0.0 2.0 0.00 0.00 0.00 42 992.7
20240527045503 56 89 0.0 2.0 0.00 0.00 0.00 40 992.7
20240527045003 57 0 0.0 0.0 0.00 0.00 0.00 38 992.7
20240527044503 57 92 0.0 1.0 0.00 0.00 0.00 37 992.6
20240527044003 58 92 0.0 1.0 0.00 0.00 0.00 37 992.6
20240527043503 58 92 0.0 1.0 0.00 0.00 0.00 36 992.5
20240527043003 59 92 0.0 1.0 0.00 0.00 0.00 35 992.5
20240527042503 60 89 0.0 1.0 0.00 0.00 0.00 33 992.4
20240527042003 61 88 0.0 4.0 0.00 0.00 0.00 32 992.4
20240527041503 61 87 0.0 4.0 0.00 0.00 0.00 32 992.3
20240527041003 62 79 0.0 2.0 0.00 0.00 0.00 31 992.2
20240527040503 62 79 0.0 3.0 0.00 0.00 0.00 31 992.1
20240527040003 62 80 0.0 3.0 0.00 0.00 0.00 31 991.9
20240527035503 62 80 0.0 2.0 0.00 0.00 0.00 31 991.7
20240527035003 62 77 0.0 2.0 0.00 0.00 0.00 30 991.5
20240527034503 62 76 1.0 5.0 0.00 0.00 0.00 30 991.3
20240527034003 62 83 1.0 5.0 0.00 0.00 0.00 31 991.0
20240527033503 62 99 0.0 2.0 0.00 0.00 0.00 31 990.9
20240527033003 63 112 0.0 3.0 0.00 0.00 0.00 31 990.7
20240527032503 64 98 1.0 6.0 0.00 0.00 0.00 30 990.7
20240527032003 64 87 1.0 6.0 0.00 0.00 0.00 28 990.5
20240527031503 64 93 1.0 4.0 0.00 0.00 0.00 27 990.5
20240527031003 65 97 1.0 4.0 0.00 0.00 0.00 28 990.4
20240527030503 65 88 1.0 7.0 0.00 0.00 0.00 28 990.4
20240527030003 66 89 2.0 8.0 0.00 0.00 0.00 26 990.3
20240527025503 66 92 2.0 8.0 0.00 0.00 0.00 26 990.1
20240527025003 65 92 1.0 4.0 0.00 0.00 0.00 28 989.9
20240527024503 65 87 1.0 4.0 0.00 0.00 0.00 27 989.7
20240527024003 65 86 0.0 3.0 0.00 0.00 0.00 27 989.6
20240527023503 65 88 0.0 3.0 0.00 0.00 0.00 26 989.5
20240527023003 66 88 0.0 1.0 0.00 0.00 0.00 27 989.3
20240527022503 66 85 0.0 5.0 0.00 0.00 0.00 26 989.2
20240527022003 68 85 0.0 5.0 0.00 0.00 0.00 24 989.0
20240527021503 69 88 0.0 1.0 0.00 0.00 0.00 24 989.0
20240527021003 70 89 2.0 8.0 0.00 0.00 0.00 23 988.8
20240527020503 70 90 3.0 8.0 0.00 0.00 0.00 21 988.6
20240527020003 71 91 3.0 7.0 0.00 0.00 0.00 21 988.5
20240527015503 71 90 3.0 2.0 0.00 0.00 0.00 20 988.3
20240527015003 78 84 3.0 2.0 0.00 0.00 0.00 20 988.3
20240527014504 78 84 3.0 2.0 0.00 0.00 0.00 20 988.2
20240527014003 78 84 3.0 2.0 0.00 0.00 0.00 20 988.1
20240527013503 78 84 3.0 2.0 0.00 0.00 0.00 20 988.0
20240527013003 78 84 3.0 2.0 0.00 0.00 0.00 20 987.9
20240527012503 78 84 3.0 2.0 0.00 0.00 0.00 20 987.8
20240527012003 78 84 3.0 2.0 0.00 0.00 0.00 20 987.7
20240527011503 78 84 3.0 2.0 0.00 0.00 0.00 20 987.6
20240527011003 78 84 3.0 2.0 0.00 0.00 0.00 20 987.6
20240527010503 78 84 3.0 2.0 0.00 0.00 0.00 20 987.6
20240527010003 78 84 3.0 2.0 0.00 0.00 0.00 20 987.6
20240527005503 78 84 3.0 2.0 0.00 0.00 0.00 20 987.5
20240527005003 78 84 3.0 2.0 0.00 0.00 0.00 20 987.4
20240527004503 78 84 3.0 2.0 0.00 0.00 0.00 20 987.4
20240527004003 78 84 3.0 2.0 0.00 0.00 0.00 20 987.4
20240527003503 78 84 3.0 2.0 0.00 0.00 0.00 20 987.2
20240527003003 78 84 3.0 2.0 0.00 0.00 0.00 20 987.2
20240527002503 78 84 3.0 2.0 0.00 0.00 0.00 20 987.2
20240527002003 78 84 3.0 2.0 0.00 0.00 0.00 20 987.3
20240527001503 78 84 3.0 2.0 0.00 0.00 0.00 20 987.2
20240527001003 78 74 3.0 6.0 0.00 0.00 0.00 20 987.3
20240527000503 78 75 4.0 13.0 0.00 0.00 0.00 20 987.2
20240527000003 78 76 4.0 13.0 0.00 0.00 0.00 18 987.2
20240526235503 78 84 4.0 10.0 0.00 0.00 0.00 19 987.2
20240526235003 77 88 5.0 11.0 0.00 0.00 0.00 19 987.3
20240526234503 77 84 4.0 11.0 0.00 0.00 0.00 20 987.3
20240526234003 77 85 3.0 8.0 0.00 0.00 0.00 21 987.2
20240526233503 76 93 3.0 12.0 0.00 0.00 0.00 21 987.2
20240526233003 74 92 4.0 12.0 0.00 0.00 0.00 22 987.1
20240526232503 74 88 7.0 13.0 0.00 0.00 0.00 22 987.1
20240526232003 74 89 8.0 13.0 0.00 0.00 0.00 20 987.1
20240526231503 73 90 6.0 13.0 0.00 0.00 0.00 21 986.9
20240526231003 73 89 4.0 10.0 0.00 0.00 0.00 23 986.9
20240526230503 74 91 4.0 8.0 0.00 0.00 0.00 22 987.0
20240526230004 74 94 4.0 10.0 0.00 0.00 0.00 22 986.9
20240526225503 76 92 4.0 17.0 0.00 0.00 0.00 23 987.0
20240526225003 76 89 4.0 17.0 0.00 0.00 0.00 23 986.9
20240526224503 76 89 4.0 9.0 0.00 0.00 0.00 23 986.9
20240526224003 76 34 4.0 9.0 0.00 0.00 0.00 22 987.0
20240526223503 77 286 5.0 12.0 0.00 0.00 0.00 19 986.8
20240526223003 78 281 6.0 13.0 0.00 0.00 0.00 17 986.8
20240526222503 78 282 6.0 15.0 0.00 0.00 0.00 19 986.8
20240526222003 78 295 7.0 15.0 0.00 0.00 0.00 18 986.8
20240526221503 77 302 9.0 15.0 0.00 0.00 0.00 19 987.0
20240526221003 77 303 9.0 17.0 0.00 0.00 0.00 19 986.8
20240526220503 77 302 8.0 17.0 0.00 0.00 0.00 21 986.6
20240526220003 77 293 7.0 16.0 0.00 0.00 0.00 20 986.7
20240526215503 77 275 7.0 14.0 0.00 0.00 0.00 19 986.6
20240526215003 77 258 6.0 14.0 0.00 0.00 0.00 18 986.6
20240526214503 77 274 7.0 16.0 0.00 0.00 0.00 18 986.5
20240526214003 76 293 9.0 19.0 0.00 0.00 0.00 18 986.5
20240526213503 76 305 7.0 19.0 0.00 0.00 0.00 21 986.5
20240526213003 74 339 5.0 12.0 0.00 0.00 0.00 21 986.5
20240526212503 74 318 7.0 13.0 0.00 0.00 0.00 19 986.4
20240526212003 74 298 8.0 19.0 0.00 0.00 0.00 20 986.6
20240526211503 75 292 7.0 19.0 0.00 0.00 0.00 19 986.5
20240526211003 76 276 4.0 10.0 0.00 0.00 0.00 19 986.4
20240526210503 76 262 5.0 15.0 0.00 0.00 0.00 20 986.3
20240526210003 76 248 6.0 17.0 0.00 0.00 0.00 18 986.4
20240526205503 77 233 6.0 17.0 0.00 0.00 0.00 18 986.4
20240526205003 77 236 6.0 16.0 0.00 0.00 0.00 16 986.4
20240526204503 78 252 8.0 16.0 0.00 0.00 0.00 16 986.5
20240526204003 78 261 8.0 19.0 0.00 0.00 0.00 18 986.5
20240526203503 77 253 8.0 19.0 0.00 0.00 0.00 20 986.4
20240526203003 77 279 9.0 17.0 0.00 0.00 0.00 17 986.4
20240526202503 77 308 8.0 18.0 0.00 0.00 0.00 18 986.2
20240526202003 77 303 7.0 18.0 0.00 0.00 0.00 19 986.3
20240526201503 76 286 7.0 17.0 0.00 0.00 0.00 19 986.3
20240526201003 76 287 7.0 17.0 0.00 0.00 0.00 18 986.4
20240526200503 76 268 7.0 16.0 0.00 0.00 0.00 18 986.4
20240526200004 76 252 8.0 18.0 0.00 0.00 0.00 19 986.5
20240526195503 76 261 7.0 18.0 0.00 0.00 0.00 18 986.4
20240526195003 76 260 7.0 17.0 0.00 0.00 0.00 18 986.5
20240526194503 76 257 8.0 18.0 0.00 0.00 0.00 18 986.4
20240526194003 75 264 7.0 18.0 0.00 0.00 0.00 19 986.5
20240526193503 76 285 5.0 18.0 0.00 0.00 0.00 17 986.6
20240526193003 76 269 5.0 11.0 0.00 0.00 0.00 19 986.7
20240526192503 75 242 3.0 11.0 0.00 0.00 0.00 19 986.4
20240526192003 75 252 5.0 15.0 0.00 0.00 0.00 22 986.4
20240526191503 75 250 6.0 15.0 0.00 0.00 0.00 18 986.3
20240526191003 75 264 4.0 11.0 0.00 0.00 0.00 20 986.3
20240526190503 74 256 5.0 10.0 0.00 0.00 0.00 20 986.5
20240526190003 74 229 7.0 13.0 0.00 0.00 0.00 19 986.6
20240526185503 74 225 7.0 15.0 0.00 0.00 0.00 20 986.6
20240526185003 73 251 7.0 15.0 0.00 0.00 0.00 20 986.4
20240526184503 73 275 5.0 13.0 0.00 0.00 0.00 20 986.6
20240526184003 73 259 3.0 9.0 0.00 0.00 0.00 23 986.7
20240526183503 73 239 5.0 13.0 0.00 0.00 0.00 21 986.8
20240526183003 73 229 5.0 13.0 0.00 0.00 0.00 19 986.9
20240526182503 73 231 4.0 10.0 0.00 0.00 0.00 20 987.0
20240526182004 73 248 5.0 11.0 0.00 0.00 0.00 18 987.1
20240526181503 72 253 6.0 11.0 0.00 0.00 0.00 20 987.1
20240526181003 72 241 7.0 16.0 0.00 0.00 0.00 24 987.0
20240526180503 72 239 7.0 19.0 0.00 0.00 0.00 22 987.1
20240526180003 72 254 5.0 19.0 0.00 0.00 0.00 21 987.1
20240526175503 71 252 5.0 12.0 0.00 0.00 0.00 22 987.2
20240526175003 71 234 5.0 12.0 0.00 0.00 0.00 23 987.3
20240526174503 71 212 5.0 11.0 0.00 0.00 0.00 21 987.2
20240526174003 71 224 5.0 11.0 0.00 0.00 0.00 20 987.2
20240526173503 71 266 5.0 17.0 0.00 0.00 0.00 23 987.1
20240526173003 70 269 6.0 17.0 0.00 0.00 0.00 20 987.0
20240526172503 71 281 7.0 14.0 0.00 0.00 0.00 23 987.0
20240526172003 70 291 7.0 14.0 0.00 0.00 0.00 23 987.1
20240526171503 70 283 7.0 13.0 0.00 0.00 0.00 24 987.0
20240526171003 70 275 8.0 19.0 0.00 0.00 0.00 23 986.9
20240526170503 70 279 8.0 19.0 0.00 0.00 0.00 23 986.9
20240526170003 69 290 9.0 17.0 0.00 0.00 0.00 22 986.9
20240526165503 69 269 10.0 17.0 0.00 0.00 0.00 24 987.1
20240526165003 69 258 9.0 17.0 0.00 0.00 0.00 21 987.1
20240526164503 69 281 9.0 17.0 0.00 0.00 0.00 24 987.1
20240526164003 69 290 10.0 21.0 0.00 0.00 0.00 22 987.0
20240526163503 69 287 10.0 21.0 0.00 0.00 0.00 23 987.2
20240526163003 68 276 8.0 16.0 0.00 0.00 0.00 24 987.1
20240526162503 68 278 8.0 18.0 0.00 0.00 0.00 23 987.1
20240526162003 68 288 9.0 18.0 0.00 0.00 0.00 25 987.1
20240526161503 68 284 8.0 20.0 0.00 0.00 0.00 24 987.0
20240526161003 68 272 9.0 20.0 0.00 0.00 0.00 26 987.2
20240526160503 67 263 9.0 19.0 0.00 0.00 0.00 24 987.2